Nur fliegen ist schöner ....

Willkommen beim Flugservice Bautzen GmbH

Wir sind eine nach europäischen Richtlinien zugelassene Flugschule und lizenziertes Luftfahrtunternehmen. Bei uns können sie nicht nur Rundflüge über die Oberlausitz oder Sachsen buchen, sondern in unserer Flugschule selber das Fliegen erlernen. Erfahrene Fluglehrer stehen ihnen dabei zur Seite.

Wir bieten außerdem Businessflüghe sowie Transportleistungen auf dem Luftweg, ganz nach ihren Wünschen, an. Schauen sie sich in Ruhe bei uns um und wenn sie Fragen haben oder weitere Informationen benötigen, scheuen sie sich nicht Kontakt mit uns aufzunehmen.

Rundflüge können sie ganz leicht auch online in unserem Shop buchen.

Terminkalender

Letzter Monat August 2017 Nächster Monat
Mo Di Mi Do Fr Sa So
week 31 1 2 3 4 5 6
week 32 7 8 9 10 11 12 13
week 33 14 15 16 17 18 19 20
week 34 21 22 23 24 25 26 27
week 35 28 29 30 31

Flugwetterinfo

[Quelle: ADDS]
METAR
EDDC 221950Z 29002KT CAVOK 12/09 Q1020 NOSIG =
TAF
EDDC 221700Z 2218/2318 35006KT CAVOK BECMG 2218/2220 28004KT =
SR / SS: 04:00 / 18:08 UTC (EDAB Flugplatz Bautzen 2017-08-22)

Webcam EDAB

Webcam EDAB
Flugservice Bautzen GmbH, Kornmarkt 34, 02625 Bautzen  Telefon: +49 (3591) 211105, Telefax: +49 (3591) 274512, E-Mail:  flugservice(at)fsbautzen.de